�������r�C�����j�^�v���󋵏��
Date,Time,5�C6���@���p�r�C��,����,����(m/s)
2023/02/10,00:00,3.7,�쐼,1.8
2023/02/10,00:10,3.9,��,3.1
2023/02/10,00:20,3.7,�쐼,1.8
2023/02/10,00:30,3.9,���k��,3.3
2023/02/10,00:40,3.8,���k��,1.5
2023/02/10,00:50,3.7,�k��,2.6
2023/02/10,01:00,3.9,�k��,3.1
2023/02/10,01:10,3.9,�k�k��,2.6
2023/02/10,01:20,3.8,�k�k��,3.4
2023/02/10,01:30,3.9,�k�k��,2.6
2023/02/10,01:40,3.8,�k��,3.3
2023/02/10,01:50,4.0,�k�k��,3.3
2023/02/10,02:00,3.9,�k��,3.7
2023/02/10,02:10,3.8,�k�k��,4.2
2023/02/10,02:20,3.7,�k�k��,4.6
2023/02/10,02:30,3.9,�k��,4.7
2023/02/10,02:40,4.2,�k��,4.9
2023/02/10,02:50,3.8,�k��,5.5
2023/02/10,03:00,3.9,�k�k��,5.5
2023/02/10,03:10,3.8,�k�k��,6.6
2023/02/10,03:20,3.8,�k�k��,6.5
2023/02/10,03:30,3.6,�k��,5.6
2023/02/10,03:40,3.8,�k�k��,6.7
2023/02/10,03:50,3.9,�k�k��,6.3
2023/02/10,04:00,3.9,�k��,6.7
2023/02/10,04:10,3.8,�k��,5.6
2023/02/10,04:20,3.8,�k��,6.3
2023/02/10,04:30,3.7,�k��,6.5
2023/02/10,04:40,3.7,�k��,6.6
2023/02/10,04:50,3.8,�k��,5.8
2023/02/10,05:00,3.7,�k��,5.4
2023/02/10,05:10,3.9,�k��,5.3
2023/02/10,05:20,3.8,�k��,5.3
2023/02/10,05:30,3.7,�k��,5.2
2023/02/10,05:40,3.8,�k��,5.6
2023/02/10,05:50,3.7,�k�k��,6.6
2023/02/10,06:00,3.8,�k��,6.2
2023/02/10,06:10,3.9,�k��,5.5
2023/02/10,06:20,3.7,�k��,5.5
2023/02/10,06:30,3.8,�k��,4.8
2023/02/10,06:40,3.7,�k��,4.7
2023/02/10,06:50,3.8,�k��,5.0
2023/02/10,07:00,3.8,�k��,5.8
2023/02/10,07:10,3.7,�k��,4.9
2023/02/10,07:20,3.9,�k��,4.9
2023/02/10,07:30,3.6,�k��,5.3
2023/02/10,07:40,3.8,�k��,4.6
2023/02/10,07:50,3.8,�k��,4.0
2023/02/10,08:00,3.7,�k��,3.6
2023/02/10,08:10,4.0,�k��,3.8
2023/02/10,08:20,3.9,�k��,5.6
2023/02/10,08:30,3.7,�k��,5.8
2023/02/10,08:40,3.9,�k��,4.9
2023/02/10,08:50,3.8,�k��,5.5
2023/02/10,09:00,3.9,�k��,4.3
2023/02/10,09:10,3.8,�k��,5.3
2023/02/10,09:20,3.9,�k��,5.1
2023/02/10,09:30,3.7,�k�k��,4.2
2023/02/10,09:40,4.0,�k�k��,4.5
2023/02/10,09:50,3.8,�k�k��,4.6
2023/02/10,10:00,3.9,�k��,3.6
2023/02/10,10:10,4.0,�k��,5.3
2023/02/10,10:20,3.7,�k��,5.4
2023/02/10,10:30,3.8,�k�k��,4.4
2023/02/10,10:40,3.9,�k��,4.5
2023/02/10,10:50,3.7,�k��,5.6
2023/02/10,11:00,3.9,�k��,6.1
2023/02/10,11:10,3.8,�k��,6.9
2023/02/10,11:20,3.7,�k��,6.9
2023/02/10,11:30,3.9,�k��,6.9
2023/02/10,11:40,3.8,�k��,5.9
2023/02/10,11:50,3.7,�k��,6.0
2023/02/10,12:00,3.9,�k��,6.2
2023/02/10,12:10,3.9,�k�k��,6.3
2023/02/10,12:20,3.7,�k�k��,5.8
2023/02/10,12:30,3.8,�k�k��,5.8
2023/02/10,12:40,3.8,�k�k��,6.0
2023/02/10,12:50,3.7,�k��,5.6
2023/02/10,13:00,3.8,�k��,6.3
2023/02/10,13:10,3.9,�k��,7.5
2023/02/10,13:20,4.0,�k�k��,7.0
2023/02/10,13:30,3.8,�k��,6.7
2023/02/10,13:40,3.9,�k��,7.6
2023/02/10,13:50,3.8,�k�k��,7.1
2023/02/10,14:00,4.0,�k�k��,7.6
2023/02/10,14:10,4.0,�k��,7.4
2023/02/10,14:20,3.7,�k�k��,6.6
2023/02/10,14:30,3.8,�k�k��,6.4
2023/02/10,14:40,3.8,�k��,8.1
2023/02/10,14:50,3.9,�k�k��,7.2
2023/02/10,15:00,4.1,�k��,7.8
2023/02/10,15:10,3.8,�k�k��,6.0
2023/02/10,15:20,4.1,�k��,7.1
2023/02/10,15:30,3.8,�k��,8.2
2023/02/10,15:40,3.7,�k�k��,7.1
2023/02/10,15:50,3.9,�k��,7.6
2023/02/10,16:00,3.7,�k��,7.9
2023/02/10,16:10,3.9,�k��,7.8
2023/02/10,16:20,3.9,�k�k��,7.7
2023/02/10,16:30,4.0,�k��,8.9
2023/02/10,16:40,4.1,�k��,8.6
2023/02/10,16:50,3.7,�k�k��,6.9
2023/02/10,17:00,4.0,�k�k��,8.7
2023/02/10,17:10,3.9,�k�k��,7.2
2023/02/10,17:20,3.6,�k��,9.9
2023/02/10,17:30,3.8,�k�k��,8.5
2023/02/10,17:40,4.0,�k�k��,7.5
2023/02/10,17:50,3.9,�k��,6.9
2023/02/10,18:00,3.9,�k�k��,9.0
2023/02/10,18:10,3.8,�k�k��,8.6
2023/02/10,18:20,4.0,�k�k��,9.0
2023/02/10,18:30,3.7,�k�k��,7.8
2023/02/10,18:40,3.9,�k��,7.5
2023/02/10,18:50,3.9,�k�k��,6.4
2023/02/10,19:00,3.9,�k,1.2
2023/02/10,19:10,3.9,�k�k��,6.1
2023/02/10,19:20,3.8,�k��,9.0
2023/02/10,19:30,4.0,�k�k��,7.7
2023/02/10,19:40,3.8,�k�k��,9.8
2023/02/10,19:50,3.9,�k�k��,9.1
2023/02/10,20:00,3.9,�k�k��,7.5
2023/02/10,20:10,4.0,�k�k��,9.0
2023/02/10,20:20,3.7,�k�k��,9.7
2023/02/10,20:30,4.0,�k��,8.8
2023/02/10,20:40,3.8,�k,2.6
2023/02/10,20:50,3.9,�k��,11.8
2023/02/10,21:00,3.6,�k��,9.1
2023/02/10,21:10,3.8,�k,3.5
2023/02/10,21:20,3.8,�k��,8.6
2023/02/10,21:30,3.9,�k�k��,6.6
2023/02/10,21:40,3.8,�k,7.9
2023/02/10,21:50,3.7,�k�k��,9.4
2023/02/10,22:00,3.7,�k�k��,10.5
2023/02/10,22:10,3.9,�k�k��,10.7
2023/02/10,22:20,3.9,�k�k��,10.6
2023/02/10,22:30,3.6,�k�k��,8.8
2023/02/10,22:40,3.8,�k�k��,9.8
2023/02/10,22:50,3.8,�k�k��,10.7
2023/02/10,23:00,3.9,�k,10.2
2023/02/10,23:10,4.0,�k�k��,11.1
2023/02/10,23:20,3.8,�k,12.2
2023/02/10,23:30,3.9,�k�k��,13.0
2023/02/10,23:40,3.8,�k�k��,14.1
2023/02/10,23:50,4.1,�k�k��,13.5
